Retour au catalogue

STARLINK-38076

ActifCommunicationsSSO
NORAD 69740·PAYLOAD·🇺🇸 United States

Lancé Jul 2, 2026 depuis Vandenberg Space Force Base

Loading…

Prochains Passages (prochaines 24 heures)

TLE

FraisSource: CelesTrak SupGP

Époque: Sep 15, 2026, 03:19 UTC

1 69740C 26150B   26258.13868056 -.00048005  00000+0 -14918-2 0  2581
2 69740  97.2852  97.1068 0001635 103.1092 204.9233 15.33429332    12

Suivez STARLINK-38076 en temps réel avec AllMySat

Download on the App Store